CES2812 ZBAD-ZSNJ

Flight info

Callsign CES2812
Flight time N/A
Altitude 31100
Route ELKUR4K ELKUR W40 YQG/K0822S1160 W142 DALIM/K0815S1130 A593 DPX A470 OF OF71F
Aircraft A320/M-SDE3FGHIRWY/LB1

Departure

Time 2026-03-28 03:04
Airport Beijing Daxing International Airport (ZBAD)

Arrival

Time N/A
Airport Nanjing Lukou International Airport (ZSNJ)
Time Latitude Longitude Altitude Speed Heading
2026-03-28 02:43 39.51369 116.41737 85 ft 0 kts 246°
2026-03-28 02:49 39.51371 116.41741 89 ft 2 kts 246°
2026-03-28 02:49 39.51379 116.41763 89 ft 3 kts 246°
2026-03-28 02:49 39.51386 116.41784 89 ft 3 kts 241°
2026-03-28 02:49 39.51397 116.41804 86 ft 3 kts 209°
2026-03-28 02:50 39.51413 116.41809 89 ft 3 kts 160°
2026-03-28 02:50 39.51430 116.41797 90 ft 3 kts 141°
2026-03-28 02:50 39.51442 116.41785 90 ft 1 kts 143°
2026-03-28 02:54 39.51431 116.41796 86 ft 7 kts 144°
2026-03-28 02:54 39.51369 116.41853 86 ft 12 kts 149°
2026-03-28 02:55 39.51290 116.41875 86 ft 11 kts 174°
2026-03-28 02:55 39.51219 116.41885 86 ft 10 kts 173°
2026-03-28 02:55 39.51158 116.41895 86 ft 8 kts 173°
2026-03-28 02:55 39.51105 116.41906 87 ft 7 kts 158°
2026-03-28 02:56 39.51094 116.41953 85 ft 5 kts 91°
2026-03-28 02:56 39.51099 116.42037 85 ft 15 kts 98°
2026-03-28 02:56 39.50994 116.42083 88 ft 19 kts 173°
2026-03-28 02:56 39.50852 116.42103 89 ft 22 kts 174°
2026-03-28 02:57 39.50685 116.42130 86 ft 26 kts 173°
2026-03-28 02:57 39.50501 116.42159 87 ft 28 kts 173°
2026-03-28 02:57 39.50331 116.42186 88 ft 16 kts 175°
2026-03-28 02:57 39.50282 116.42062 86 ft 19 kts 266°
2026-03-28 02:58 39.50263 116.41877 88 ft 22 kts 263°
2026-03-28 02:58 39.50243 116.41661 86 ft 26 kts 263°
2026-03-28 02:58 39.50219 116.41414 85 ft 29 kts 263°
2026-03-28 02:58 39.50195 116.41150 86 ft 26 kts 263°
2026-03-28 02:59 39.50174 116.40903 86 ft 29 kts 263°
2026-03-28 02:59 39.50148 116.40638 85 ft 30 kts 262°
2026-03-28 02:59 39.50120 116.40362 85 ft 30 kts 262°
2026-03-28 02:59 39.50101 116.40147 87 ft 18 kts 273°
2026-03-28 03:00 39.50197 116.40092 89 ft 16 kts 354°
2026-03-28 03:00 39.50315 116.40074 91 ft 18 kts 352°
2026-03-28 03:00 39.50445 116.40054 88 ft 20 kts 354°
2026-03-28 03:00 39.50591 116.40033 87 ft 22 kts 354°
2026-03-28 03:01 39.50750 116.40007 88 ft 24 kts 351°
2026-03-28 03:01 39.50921 116.39976 87 ft 26 kts 352°
2026-03-28 03:01 39.51102 116.39947 89 ft 27 kts 355°
2026-03-28 03:01 39.51287 116.39921 91 ft 24 kts 347°
2026-03-28 03:02 39.51426 116.39888 88 ft 14 kts 324°
2026-03-28 03:02 39.51435 116.39799 93 ft 7 kts 261°
2026-03-28 03:02 39.51432 116.39773 94 ft 0 kts 262°
2026-03-28 03:02 39.51430 116.39758 95 ft 10 kts 262°
2026-03-28 03:03 39.51391 116.39677 97 ft 10 kts 169°
2026-03-28 03:03 39.51381 116.39679 97 ft 4 kts 171°
2026-03-28 03:03 39.51071 116.39731 98 ft 84 kts 172°
2026-03-28 03:03 39.50275 116.39860 101 ft 143 kts 173°
2026-03-28 03:04 39.49193 116.40008 504 ft 156 kts 173°
2026-03-28 03:04 39.48098 116.40156 1204 ft 158 kts 173°
2026-03-28 03:04 39.47001 116.40323 1926 ft 162 kts 173°
2026-03-28 03:04 39.45812 116.40507 2358 ft 184 kts 173°
2026-03-28 03:05 39.44450 116.40715 2779 ft 209 kts 173°
2026-03-28 03:05 39.42918 116.40948 3246 ft 234 kts 173°
2026-03-28 03:05 39.41230 116.41209 3882 ft 252 kts 173°
2026-03-28 03:05 39.39466 116.41486 4803 ft 259 kts 174°
2026-03-28 03:06 39.37664 116.41790 5733 ft 264 kts 170°
2026-03-28 03:06 39.35973 116.42770 6565 ft 274 kts 142°
2026-03-28 03:06 39.34825 116.44762 7390 ft 285 kts 111°
2026-03-28 03:06 39.34583 116.47310 8214 ft 292 kts 84°
2026-03-28 03:07 39.34821 116.49934 9098 ft 297 kts 82°
2026-03-28 03:07 39.35083 116.52569 9956 ft 302 kts 81°
2026-03-28 03:07 39.35357 116.55328 10429 ft 321 kts 83°
2026-03-28 03:07 39.35421 116.58324 10704 ft 346 kts 92°
2026-03-28 03:08 39.35248 116.61529 10924 ft 369 kts 94°
2026-03-28 03:08 39.35051 116.64904 11413 ft 381 kts 94°
2026-03-28 03:08 39.34842 116.68347 12109 ft 387 kts 94°
2026-03-28 03:08 39.34631 116.71828 12832 ft 391 kts 94°
2026-03-28 03:09 39.34361 116.75338 13546 ft 396 kts 100°
2026-03-28 03:09 39.33574 116.78763 14202 ft 400 kts 114°
2026-03-28 03:09 39.32198 116.81888 14824 ft 402 kts 128°
2026-03-28 03:09 39.30306 116.84548 15460 ft 404 kts 141°
2026-03-28 03:10 39.27998 116.86594 16062 ft 404 kts 155°
2026-03-28 03:10 39.25407 116.88022 16689 ft 406 kts 161°
2026-03-28 03:10 39.22762 116.89351 17318 ft 410 kts 161°
2026-03-28 03:10 39.20091 116.90688 17944 ft 414 kts 162°
2026-03-28 03:11 39.18310 116.91579 18353 ft 416 kts 162°
2026-03-28 03:11 39.14678 116.93402 19063 ft 421 kts 162°
2026-03-28 03:11 39.12830 116.94334 19428 ft 423 kts 162°
2026-03-28 03:11 39.10085 116.95720 19954 ft 425 kts 162°
2026-03-28 03:12 39.07358 116.97097 20474 ft 428 kts 162°
2026-03-28 03:12 39.04575 116.98500 20983 ft 431 kts 162°
2026-03-28 03:12 39.01775 116.99906 21482 ft 433 kts 162°
2026-03-28 03:12 38.98959 117.01318 21968 ft 436 kts 162°
2026-03-28 03:13 38.96124 117.02738 22437 ft 438 kts 162°
2026-03-28 03:13 38.93275 117.04165 22885 ft 441 kts 162°
2026-03-28 03:13 38.90366 117.05401 23298 ft 439 kts 172°
2026-03-28 03:13 38.87353 117.05757 23701 ft 433 kts 186°
2026-03-28 03:14 38.84402 117.05158 24053 ft 428 kts 200°
2026-03-28 03:14 38.81683 117.03676 24417 ft 423 kts 214°
2026-03-28 03:14 38.79344 117.01437 24767 ft 418 kts 227°
2026-03-28 03:14 38.77498 116.98584 25120 ft 415 kts 240°
2026-03-28 03:15 38.76103 116.95353 25471 ft 415 kts 244°
2026-03-28 03:15 38.74743 116.92084 25818 ft 416 kts 244°
2026-03-28 03:15 38.73375 116.88810 26158 ft 417 kts 244°
2026-03-28 03:15 38.72007 116.85545 26504 ft 417 kts 244°
2026-03-28 03:16 38.70627 116.82264 26832 ft 418 kts 244°
2026-03-28 03:16 38.69245 116.78986 27134 ft 419 kts 244°
2026-03-28 03:16 38.67856 116.75699 27416 ft 420 kts 244°
2026-03-28 03:16 38.66267 116.72546 27692 ft 425 kts 234°
2026-03-28 03:17 38.64191 116.69820 27949 ft 432 kts 224°
2026-03-28 03:17 38.61677 116.67663 28179 ft 440 kts 212°
2026-03-28 03:17 38.58811 116.66212 28447 ft 449 kts 201°
2026-03-28 03:17 38.55706 116.65534 28753 ft 456 kts 191°
2026-03-28 03:18 38.52547 116.65176 29059 ft 456 kts 191°
2026-03-28 03:18 38.46243 116.64462 29697 ft 454 kts 191°
2026-03-28 03:18 38.43141 116.64107 30020 ft 453 kts 192°
2026-03-28 03:19 38.40005 116.63746 30311 ft 452 kts 192°
2026-03-28 03:19 38.36876 116.63388 30573 ft 451 kts 192°
2026-03-28 03:19 38.33756 116.63033 30857 ft 450 kts 192°
2026-03-28 03:19 38.30618 116.62835 31098 ft 455 kts 186°
2026-03-28 03:20 38.27441 116.63234 31153 ft 465 kts 177°
2026-03-28 03:20 38.21148 116.65468 31162 ft 471 kts 171°
2026-03-28 03:21 38.14872 116.67815 31168 ft 470 kts 171°
2026-03-28 03:21 38.08586 116.70127 31162 ft 470 kts 171°
2026-03-28 03:22 38.02312 116.72507 31162 ft 471 kts 171°
2026-03-28 03:22 37.96040 116.74937 31164 ft 471 kts 170°
2026-03-28 03:23 37.89763 116.77352 31166 ft 471 kts 171°
2026-03-28 03:23 37.83485 116.79743 31167 ft 471 kts 171°
2026-03-28 03:24 37.77214 116.82113 31167 ft 471 kts 171°
2026-03-28 03:24 37.70980 116.84469 31139 ft 470 kts 171°
2026-03-28 03:25 37.64707 116.86835 31143 ft 470 kts 171°
2026-03-28 03:25 37.58425 116.89191 31143 ft 471 kts 171°
2026-03-28 03:26 37.52135 116.91547 31143 ft 472 kts 171°
2026-03-28 03:26 37.45841 116.93904 31120 ft 472 kts 171°
2026-03-28 03:27 37.39532 116.96266 31130 ft 473 kts 171°
2026-03-28 03:27 37.33222 116.98620 31135 ft 473 kts 171°
2026-03-28 03:28 37.26915 117.01059 31140 ft 476 kts 169°
2026-03-28 03:28 37.20664 117.03961 31131 ft 480 kts 166°
2026-03-28 03:29 37.14490 117.07017 31138 ft 480 kts 166°
2026-03-28 03:29 37.08218 117.10036 31139 ft 479 kts 167°
2026-03-28 03:30 37.02008 117.12912 31143 ft 479 kts 168°
2026-03-28 03:30 36.95740 117.15785 31124 ft 479 kts 168°
2026-03-28 03:31 36.89469 117.18678 31130 ft 480 kts 168°
2026-03-28 03:31 36.83146 117.21112 31138 ft 469 kts 179°
2026-03-28 03:32 36.76768 117.21576 31142 ft 455 kts 189°
2026-03-28 03:32 36.70427 117.21506 31136 ft 456 kts 190°
2026-03-28 03:33 36.64077 117.21456 31153 ft 456 kts 189°
2026-03-28 03:33 36.57724 117.21417 31154 ft 456 kts 189°
2026-03-28 03:34 36.51374 117.21381 31145 ft 456 kts 190°
2026-03-28 03:34 36.45066 117.21340 31156 ft 457 kts 189°
2026-03-28 03:35 36.38648 117.22441 31153 ft 478 kts 173°
2026-03-28 03:35 36.32278 117.24843 31165 ft 479 kts 172°
2026-03-28 03:36 36.25889 117.27230 31152 ft 479 kts 173°
2026-03-28 03:36 36.19501 117.29595 31161 ft 479 kts 173°
2026-03-28 03:37 36.13127 117.31947 31169 ft 478 kts 173°
2026-03-28 03:37 36.06748 117.34303 31136 ft 478 kts 173°
2026-03-28 03:38 36.00374 117.36658 31154 ft 478 kts 173°
2026-03-28 03:38 35.94016 117.39023 31157 ft 478 kts 173°
2026-03-28 03:39 35.87658 117.41407 31166 ft 478 kts 173°
2026-03-28 03:39 35.81286 117.43791 31144 ft 478 kts 173°
2026-03-28 03:40 35.74921 117.46162 31156 ft 478 kts 173°
2026-03-28 03:40 35.68559 117.48536 31162 ft 478 kts 173°
2026-03-28 03:41 35.62195 117.50906 31171 ft 478 kts 173°
2026-03-28 03:41 35.55814 117.53275 31171 ft 479 kts 173°
2026-03-28 03:42 35.49439 117.55638 31173 ft 479 kts 173°
2026-03-28 03:42 35.43062 117.58002 31178 ft 479 kts 173°
2026-03-28 03:43 35.36725 117.60347 31176 ft 479 kts 173°
2026-03-28 03:43 35.30345 117.62702 31157 ft 479 kts 173°
2026-03-28 03:44 35.23964 117.65055 31167 ft 478 kts 173°
2026-03-28 03:44 35.17593 117.67399 31175 ft 479 kts 173°
2026-03-28 03:45 35.11217 117.69739 31190 ft 479 kts 173°
2026-03-28 03:45 35.04836 117.72062 31174 ft 478 kts 173°
2026-03-28 03:46 34.98457 117.74392 31181 ft 478 kts 173°
2026-03-28 03:46 34.92089 117.76728 31182 ft 478 kts 173°
2026-03-28 03:47 34.85712 117.79059 31183 ft 478 kts 173°
2026-03-28 03:47 34.79342 117.81390 31183 ft 478 kts 174°
2026-03-28 03:48 34.73011 117.83679 31189 ft 477 kts 174°
2026-03-28 03:48 34.66638 117.85962 31190 ft 477 kts 174°
2026-03-28 03:49 34.60277 117.88232 31193 ft 477 kts 174°
2026-03-28 03:49 34.53919 117.90506 31177 ft 476 kts 174°
2026-03-28 03:50 34.47574 117.92782 31182 ft 475 kts 174°
2026-03-28 03:50 34.41234 117.95057 31186 ft 475 kts 174°
2026-03-28 03:51 34.34893 117.97319 31192 ft 475 kts 174°
2026-03-28 03:51 34.28551 117.99577 31173 ft 475 kts 173°
2026-03-28 03:52 34.22220 118.01845 31184 ft 475 kts 173°
2026-03-28 03:52 34.15887 118.04162 31196 ft 475 kts 173°
2026-03-28 03:53 34.09564 118.06487 31204 ft 475 kts 173°
2026-03-28 03:53 34.03231 118.08792 31174 ft 475 kts 172°
2026-03-28 03:54 33.96891 118.11084 31181 ft 476 kts 172°
2026-03-28 03:54 33.90552 118.13397 31185 ft 476 kts 172°
2026-03-28 03:55 33.84206 118.15710 31184 ft 476 kts 172°
2026-03-28 03:55 33.77868 118.18012 31166 ft 476 kts 172°
2026-03-28 03:56 33.72600 118.19930 31177 ft 476 kts 172°
2026-03-28 03:56 33.65189 118.22623 31192 ft 476 kts 172°
2026-03-28 03:57 33.58846 118.24928 31196 ft 477 kts 172°
2026-03-28 03:57 33.53569 118.26843 31163 ft 477 kts 172°
2026-03-28 03:58 33.47218 118.29150 31181 ft 477 kts 172°
2026-03-28 03:58 33.40865 118.31450 31098 ft 477 kts 172°
2026-03-28 03:58 33.37685 118.32594 30852 ft 477 kts 172°
2026-03-28 03:59 33.34502 118.33738 30608 ft 478 kts 172°
2026-03-28 03:59 33.31310 118.34887 30371 ft 479 kts 171°
2026-03-28 03:59 33.27084 118.36411 30008 ft 479 kts 171°
2026-03-28 03:59 33.23890 118.37561 29731 ft 480 kts 171°
2026-03-28 04:00 33.21722 118.38339 29538 ft 481 kts 171°
2026-03-28 04:00 33.18511 118.39492 29264 ft 482 kts 171°
2026-03-28 04:00 33.15295 118.40650 28994 ft 483 kts 171°
2026-03-28 04:00 33.13165 118.41416 28814 ft 484 kts 171°